Chronométrage de la course Marathon International de Deauville Semi Marathon 2019

Espace Organisateurs

BREIZH CHRONO

L’allié des athlètes et sportifs en recherche de performance sportive chronométrée

Annonce :

Retrouvez les résultats du Marathon Individuel et des Marathons Relais à 2 et à 4 sur la page Marathon de Deauville - Live Race.

Résultats : Marathon International de Deauville - Semi Marathon

Classement général Classement Catégorie Nom, prénom Catégorie Sexe Club Temps global
1486 151 CALEMARD Lorraine SE F 02:10:02
1490 152 CARDON Marine SE F 02:10:04
1507 153 CANCEL Chloe SE F 02:10:44
1509 154 LECOURT KARINE SE F 02:10:45
1518 155 SCHELKENS Maud SE F 02:11:03
1519 156 DONNET MANON SE F 02:11:03
1526 157 BALOG Elisa SE F 02:11:22
1528 158 MOGE Karine SE F INFOSPORT LOIRET 02:11:23
1539 159 DENOIR Marion SE F 02:11:41
1540 160 MALAURIE Victoria SE F 02:11:44
1541 161 ROSE Gaëlle SE F 02:11:46
1544 162 DEWAELE Julia SE F 02:11:53
1559 163 JOURDAN Aurélie SE F NATURE ET JOGGING 02:12:31
1561 164 GRATIOT Marie SE F 02:12:37
1567 165 CASTILAN Lucile SE F BUSSY RUNNING 02:12:50
1577 166 DROUET AURELIE SE F 02:13:03
1580 167 BOISSON Laure-Hélène SE F 02:13:07
1595 168 SAVIN Clementine SE F 02:13:35
1597 169 BRIZON Jessica SE F 02:13:36
1609 170 MELEC Aurélie SE F 02:14:01
1610 171 ALIBERT Clémence SE F 02:14:02
1616 172 PICHOT Amélie SE F 02:14:16
1617 173 BESSONNIER Melanie SE F 02:14:19
1645 174 MORIN Audrey SE F 02:15:29
1646 175 BERTOUILLE SOPHIE SE F 02:15:33
1647 176 SCLINGAND Emilie SE F 02:15:33
1648 177 BARNABE Clemence SE F 02:15:33
1650 178 MAHE FLAVIE SE F 02:15:36
1653 179 GRUGET Aurelie SE F 02:15:38
1659 180 VAN ENST Ellyn SE F 02:15:49
1670 181 MARTIN Sophie SE F CA BREZOLLES 02:16:20
1674 182 PLISSON Claire SE F 02:16:26
1691 183 PAULEAU Sophie SE F 02:17:19
1693 184 COSSÉ Marie SE F 02:17:33
1695 185 ROYER Isabelle SE F 02:17:35
1699 186 ROBLES Cecile SE F 02:17:44
1702 187 LEFEBVRE Justine SE F 02:17:55
1710 188 GOMEZ MIGUEL Laura SE F 02:18:10
1711 189 GOURDAIN Solange SE F 02:18:10
1713 190 CHARRIER MARION SE F 02:18:14
1720 191 COLLARD FLORENCE SE F 02:18:27
1726 192 MOREAU Sarah SE F S/L PAYS DE BRIVE ATHLETIQUE CLUB 02:18:48
1727 193 HAUTCOEUR Nina SE F 02:18:52
1731 194 PHILIPPE Sarah SE F 02:19:10
1738 195 HERSENT Mathilde SE F 02:19:38
1739 196 LEMOIGNE Pauline SE F 02:19:39
1742 197 ANGOT Pauline SE F 02:19:49
1751 198 TERRIER Coralie SE F 02:20:01
1755 199 FOUQUAI Céline SE F 02:20:11
1758 200 POILANE Fanny SE F BOISSEY RUNNING BIKE 02:20:27